APX752 EGKB-EGNT

Flight info

Callsign APX752
Flight time 0h 51m
Altitude 24000
Route DET N601 BPK/N0411F340 UN601 LESTA UY250 RIMTO
Aircraft C25B/M-SDE2E3FGHRWXY/LB1

Departure

Time 2026-04-26 15:49
Airport London Biggin Hill Airport (EGKB)

Arrival

Time 2026-04-26 16:40
Airport Newcastle International Airport (EGNT)
Time Latitude Longitude Altitude Speed Heading
2026-04-26 15:42 51.33172 0.02931 561 ft 0 kts 194°
2026-04-26 15:45 51.33166 0.02928 567 ft 3 kts 183°
2026-04-26 15:46 51.33056 0.02945 566 ft 9 kts 206°
2026-04-26 15:46 51.32993 0.02896 572 ft 11 kts 205°
2026-04-26 15:46 51.32907 0.02841 573 ft 16 kts 198°
2026-04-26 15:46 51.32835 0.02790 573 ft 18 kts 208°
2026-04-26 15:47 51.32673 0.02655 564 ft 20 kts 205°
2026-04-26 15:47 51.32486 0.02548 573 ft 1 kts 165°
2026-04-26 15:47 51.32473 0.02554 573 ft 8 kts 164°
2026-04-26 15:48 51.32419 0.02625 575 ft 10 kts 117°
2026-04-26 15:48 51.32403 0.02707 576 ft 6 kts 49°
2026-04-26 15:48 51.32510 0.02793 574 ft 53 kts 25°
2026-04-26 15:48 51.33212 0.03326 721 ft 156 kts 26°
2026-04-26 15:49 51.34315 0.04136 1399 ft 191 kts 28°
2026-04-26 15:49 51.35477 0.05339 2280 ft 210 kts 51°
2026-04-26 15:49 51.35889 0.07630 3133 ft 227 kts 96°
2026-04-26 15:49 51.35238 0.10039 3773 ft 252 kts 126°
2026-04-26 15:50 51.34132 0.12291 4621 ft 260 kts 124°
2026-04-26 15:50 51.33461 0.14982 5554 ft 264 kts 104°
2026-04-26 15:50 51.33140 0.17903 6454 ft 269 kts 97°
2026-04-26 15:50 51.32902 0.20888 7306 ft 274 kts 97°
2026-04-26 15:51 51.32718 0.23964 8207 ft 280 kts 95°
2026-04-26 15:51 51.32525 0.27096 9129 ft 287 kts 97°
2026-04-26 15:51 51.32314 0.30289 10106 ft 291 kts 96°
2026-04-26 15:51 51.32095 0.33548 10918 ft 297 kts 97°
2026-04-26 15:52 51.31882 0.36853 11780 ft 302 kts 96°
2026-04-26 15:52 51.31670 0.40171 12632 ft 305 kts 96°
2026-04-26 15:52 51.31458 0.43575 13480 ft 311 kts 97°
2026-04-26 15:52 51.31301 0.45906 14044 ft 314 kts 97°
2026-04-26 15:53 51.31125 0.50554 15032 ft 321 kts 83°
2026-04-26 15:53 51.32040 0.53784 15834 ft 325 kts 50°
2026-04-26 15:53 51.33858 0.55896 16677 ft 327 kts 20°
2026-04-26 15:53 51.36091 0.56354 17425 ft 326 kts 350°
2026-04-26 15:54 51.38167 0.55017 18201 ft 323 kts 321°
2026-04-26 15:54 51.39558 0.52275 18912 ft 319 kts 293°
2026-04-26 15:54 51.40369 0.48967 19580 ft 320 kts 288°
2026-04-26 15:54 51.41202 0.45635 20268 ft 324 kts 290°
2026-04-26 15:55 51.42196 0.42367 20945 ft 328 kts 296°
2026-04-26 15:55 51.43428 0.39261 21583 ft 333 kts 303°
2026-04-26 15:55 51.44994 0.36478 22228 ft 340 kts 314°
2026-04-26 15:55 51.46773 0.33950 22900 ft 343 kts 316°
2026-04-26 15:56 51.48573 0.31405 23526 ft 346 kts 314°
2026-04-26 15:56 51.50272 0.28660 24110 ft 347 kts 310°
2026-04-26 15:56 51.51946 0.25910 24639 ft 350 kts 312°
2026-04-26 15:56 51.53696 0.23166 25189 ft 353 kts 313°
2026-04-26 15:57 51.55465 0.20403 25741 ft 355 kts 312°
2026-04-26 15:57 51.57235 0.17606 26294 ft 358 kts 312°
2026-04-26 15:57 51.59014 0.14764 26817 ft 361 kts 312°
2026-04-26 15:57 51.60226 0.12847 27181 ft 363 kts 312°
2026-04-26 15:58 51.62618 0.09046 27923 ft 366 kts 312°
2026-04-26 15:58 51.64445 0.06152 28479 ft 369 kts 312°
2026-04-26 15:58 51.65654 0.04219 28845 ft 371 kts 312°
2026-04-26 15:58 51.68119 0.00293 29565 ft 374 kts 312°
2026-04-26 15:59 51.69975 -0.02676 30058 ft 378 kts 312°
2026-04-26 15:59 51.71860 -0.05682 30494 ft 382 kts 312°
2026-04-26 15:59 51.73747 -0.08709 30929 ft 384 kts 312°
2026-04-26 15:59 51.75838 -0.11443 31330 ft 391 kts 323°
2026-04-26 16:00 51.78176 -0.13721 31761 ft 394 kts 326°
2026-04-26 16:00 51.80538 -0.15973 32177 ft 396 kts 326°
2026-04-26 16:00 51.82927 -0.18224 32635 ft 397 kts 326°
2026-04-26 16:00 51.85312 -0.20504 33046 ft 399 kts 326°
2026-04-26 16:01 51.87685 -0.22769 33434 ft 401 kts 326°
2026-04-26 16:01 51.90093 -0.25078 33839 ft 402 kts 326°
2026-04-26 16:01 51.92468 -0.27331 34681 ft 392 kts 326°
2026-04-26 16:01 51.94821 -0.29597 34988 ft 395 kts 325°
2026-04-26 16:02 51.97188 -0.31873 35324 ft 397 kts 326°
2026-04-26 16:02 51.99568 -0.34161 35644 ft 399 kts 326°
2026-04-26 16:02 52.01965 -0.36454 35966 ft 400 kts 326°
2026-04-26 16:02 52.03548 -0.37982 36165 ft 401 kts 325°
2026-04-26 16:03 52.06798 -0.41118 36293 ft 411 kts 326°
2026-04-26 16:03 52.11711 -0.45854 36301 ft 409 kts 326°
2026-04-26 16:04 52.16550 -0.50543 36301 ft 401 kts 325°
2026-04-26 16:04 52.21309 -0.55165 36289 ft 395 kts 325°
2026-04-26 16:05 52.26014 -0.59746 36280 ft 391 kts 325°
2026-04-26 16:05 52.30673 -0.64293 36292 ft 389 kts 325°
2026-04-26 16:06 52.35303 -0.68824 36282 ft 387 kts 325°
2026-04-26 16:06 52.39883 -0.73314 36268 ft 385 kts 325°
2026-04-26 16:07 52.44480 -0.77833 36266 ft 384 kts 325°
2026-04-26 16:07 52.49058 -0.82346 36262 ft 383 kts 325°
2026-04-26 16:08 52.53627 -0.86857 36270 ft 383 kts 325°
2026-04-26 16:08 52.58183 -0.91369 36269 ft 382 kts 325°
2026-04-26 16:09 52.62732 -0.95885 36256 ft 382 kts 325°
2026-04-26 16:09 52.66519 -0.99654 36253 ft 382 kts 325°
2026-04-26 16:10 52.71804 -1.04921 36253 ft 382 kts 325°
2026-04-26 16:10 52.75953 -1.07721 36278 ft 390 kts 341°
2026-04-26 16:11 52.81276 -1.09374 36297 ft 392 kts 345°
2026-04-26 16:11 52.86639 -1.11018 36299 ft 392 kts 345°
2026-04-26 16:12 52.92007 -1.12644 36299 ft 392 kts 345°
2026-04-26 16:12 53.00051 -1.15102 36292 ft 392 kts 345°
2026-04-26 16:13 53.05381 -1.16738 36287 ft 392 kts 345°
2026-04-26 16:13 53.10739 -1.18383 36282 ft 391 kts 344°
2026-04-26 16:14 53.16096 -1.20033 36277 ft 391 kts 345°
2026-04-26 16:15 53.24121 -1.22513 36275 ft 390 kts 344°
2026-04-26 16:15 53.29463 -1.24168 36279 ft 391 kts 344°
2026-04-26 16:16 53.37475 -1.26656 36277 ft 390 kts 344°
2026-04-26 16:16 53.42835 -1.28160 36273 ft 394 kts 351°
2026-04-26 16:17 53.48267 -1.28782 36274 ft 393 kts 350°
2026-04-26 16:17 53.53727 -1.29472 36273 ft 394 kts 351°
2026-04-26 16:18 53.56483 -1.29942 35695 ft 403 kts 344°
2026-04-26 16:18 53.61807 -1.33221 34486 ft 409 kts 326°
2026-04-26 16:19 53.66557 -1.38007 33166 ft 388 kts 324°
2026-04-26 16:19 53.68845 -1.40336 32641 ft 379 kts 324°
2026-04-26 16:19 53.73272 -1.44833 31664 ft 365 kts 324°
2026-04-26 16:20 53.75437 -1.47037 31171 ft 362 kts 323°
2026-04-26 16:20 53.79682 -1.51366 30213 ft 355 kts 323°
2026-04-26 16:20 53.81783 -1.53517 29725 ft 351 kts 324°
2026-04-26 16:21 53.83868 -1.55645 29262 ft 347 kts 323°
2026-04-26 16:21 53.85924 -1.57756 28812 ft 344 kts 323°
2026-04-26 16:21 53.87966 -1.59847 28358 ft 342 kts 323°
2026-04-26 16:21 53.89993 -1.61927 27908 ft 340 kts 324°
2026-04-26 16:22 53.92007 -1.64000 27460 ft 338 kts 323°
2026-04-26 16:22 53.94017 -1.66065 27012 ft 337 kts 324°
2026-04-26 16:22 53.96010 -1.68121 26569 ft 335 kts 324°
2026-04-26 16:22 53.98031 -1.70210 26125 ft 354 kts 324°
2026-04-26 16:23 54.00255 -1.72534 25633 ft 394 kts 324°
2026-04-26 16:23 54.02586 -1.74912 25282 ft 385 kts 325°
2026-04-26 16:23 54.04845 -1.77228 25276 ft 373 kts 324°
2026-04-26 16:23 54.07036 -1.79498 25275 ft 364 kts 324°
2026-04-26 16:24 54.09179 -1.81730 25275 ft 357 kts 324°
2026-04-26 16:24 54.11356 -1.83703 25075 ft 360 kts 333°
2026-04-26 16:24 54.13780 -1.84979 24337 ft 379 kts 343°
2026-04-26 16:24 54.16472 -1.85502 23488 ft 398 kts 355°
2026-04-26 16:25 54.19264 -1.85129 22652 ft 408 kts
2026-04-26 16:25 54.22073 -1.84187 21803 ft 413 kts
2026-04-26 16:25 54.24913 -1.83322 20944 ft 416 kts
2026-04-26 16:25 54.27773 -1.82436 20080 ft 419 kts
2026-04-26 16:26 54.30646 -1.81535 19211 ft 419 kts
2026-04-26 16:26 54.33496 -1.80623 18316 ft 411 kts
2026-04-26 16:26 54.36257 -1.79753 17472 ft 397 kts
2026-04-26 16:26 54.38932 -1.78913 16661 ft 385 kts
2026-04-26 16:27 54.41536 -1.78095 15885 ft 376 kts
2026-04-26 16:27 54.44087 -1.77287 15106 ft 369 kts
2026-04-26 16:27 54.46567 -1.76495 14357 ft 363 kts
2026-04-26 16:27 54.49037 -1.75723 13581 ft 358 kts
2026-04-26 16:28 54.51470 -1.74938 12839 ft 353 kts
2026-04-26 16:28 54.53875 -1.74187 12116 ft 349 kts
2026-04-26 16:28 54.56252 -1.73422 11401 ft 345 kts
2026-04-26 16:28 54.58593 -1.72678 10935 ft 336 kts
2026-04-26 16:29 54.60844 -1.71960 10614 ft 321 kts
2026-04-26 16:29 54.63001 -1.71268 10295 ft 310 kts
2026-04-26 16:29 54.65093 -1.70598 9967 ft 301 kts
2026-04-26 16:29 54.67123 -1.69907 9649 ft 294 kts 13°
2026-04-26 16:30 54.68952 -1.68378 9311 ft 291 kts 29°
2026-04-26 16:30 54.70632 -1.66623 9262 ft 279 kts 29°
2026-04-26 16:30 54.72262 -1.64877 9028 ft 275 kts 30°
2026-04-26 16:30 54.73889 -1.63123 8712 ft 275 kts 30°
2026-04-26 16:31 54.75515 -1.61358 8407 ft 275 kts 30°
2026-04-26 16:31 54.77138 -1.59591 8101 ft 275 kts 30°
2026-04-26 16:31 54.78750 -1.57821 7797 ft 274 kts 30°
2026-04-26 16:31 54.80361 -1.56061 7499 ft 273 kts 30°
2026-04-26 16:32 54.81964 -1.54297 7203 ft 273 kts 30°
2026-04-26 16:32 54.83024 -1.53133 6990 ft 273 kts 30°
2026-04-26 16:32 54.85168 -1.50783 6533 ft 272 kts 30°
2026-04-26 16:32 54.86766 -1.49030 6172 ft 271 kts 30°
2026-04-26 16:33 54.88351 -1.47284 5815 ft 270 kts 30°
2026-04-26 16:33 54.89936 -1.45540 5462 ft 269 kts 30°
2026-04-26 16:33 54.91513 -1.43801 5113 ft 268 kts 30°
2026-04-26 16:33 54.93086 -1.42072 4752 ft 267 kts 30°
2026-04-26 16:34 54.94653 -1.40344 4391 ft 266 kts 30°
2026-04-26 16:34 54.96222 -1.38655 4035 ft 263 kts 25°
2026-04-26 16:34 54.97945 -1.38054 3658 ft 255 kts 352°
2026-04-26 16:34 54.99677 -1.38769 3290 ft 251 kts 341°
2026-04-26 16:35 55.01328 -1.39584 3026 ft 248 kts 341°
2026-04-26 16:35 55.02961 -1.40462 2772 ft 241 kts 340°
2026-04-26 16:35 55.04518 -1.41276 2508 ft 226 kts 340°
2026-04-26 16:35 55.06003 -1.42052 2246 ft 219 kts 340°
2026-04-26 16:36 55.07393 -1.42979 1998 ft 208 kts 321°
2026-04-26 16:36 55.08139 -1.44907 1991 ft 184 kts 278°
2026-04-26 16:36 55.08249 -1.47017 1993 ft 165 kts 270°
2026-04-26 16:36 55.08336 -1.48969 1993 ft 158 kts 271°
2026-04-26 16:37 55.08326 -1.50852 1995 ft 155 kts 260°
2026-04-26 16:37 55.08042 -1.52636 1991 ft 152 kts 245°
2026-04-26 16:37 55.07650 -1.54341 1925 ft 152 kts 247°
2026-04-26 16:37 55.07229 -1.55991 1726 ft 146 kts 244°
2026-04-26 16:38 55.06818 -1.57577 1526 ft 141 kts 240°
2026-04-26 16:38 55.06422 -1.59055 1340 ft 129 kts 242°
2026-04-26 16:38 55.06078 -1.60401 1181 ft 113 kts 238°
2026-04-26 16:38 55.05744 -1.61584 1023 ft 106 kts 238°
2026-04-26 16:39 55.05456 -1.62739 885 ft 104 kts 238°
2026-04-26 16:39 55.05143 -1.63885 760 ft 107 kts 240°
2026-04-26 16:39 55.04823 -1.65070 616 ft 107 kts 241°
2026-04-26 16:39 55.04524 -1.66241 472 ft 105 kts 242°
2026-04-26 16:40 55.04212 -1.67394 309 ft 104 kts 242°
2026-04-26 16:40 55.03923 -1.68480 255 ft 89 kts 245°
2026-04-26 16:40 55.03714 -1.69275 262 ft 42 kts 244°
2026-04-26 16:40 55.03601 -1.69703 266 ft 35 kts 246°
2026-04-26 16:41 55.03486 -1.69838 268 ft 16 kts 188°
2026-04-26 16:41 55.03438 -1.69846 266 ft 5 kts 181°
2026-04-26 16:41 55.03382 -1.69832 262 ft 12 kts 169°
2026-04-26 16:41 55.03325 -1.69804 259 ft 5 kts 132°
2026-04-26 16:42 55.03297 -1.69777 259 ft 1 kts 150°
2026-04-26 16:42 55.03293 -1.69773 259 ft 0 kts 149°